[TLELIST] Archives

 

[TLELIST] Current TLEs

May 3rd 2025 PDT

HST 1 20580U 90037B 25123.02389578 .00010433 00000-0 40013-3 0 9991 2 20580 28.4692 350.9378 0002052 318.9685 41.0754 15.24803224726043 ISS (ZARYA) 1 25544U 98067A 25123.39976278 .00012717 00000-0 23598-3 0 9992 2 25544 51.6365 168.8960 0002156 81.8387 12.2253 15.49318505508217 CXO 1 25867U 99040B 25124.47797547 .00000650 00000-0 00000-0 0 9995 2 25867 48.5990 131.7302 8493358 308.8609 359.7335 0.37807267 15771 ...Continue Reading

[TLELIST] Current TLEs

May 3rd 2025 PDT

HST 1 20580U 90037B 25123.02389578 .00010433 00000-0 40013-3 0 9991 2 20580 28.4692 350.9378 0002052 318.9685 41.0754 15.24803224726043 ISS (ZARYA) 1 25544U 98067A 25123.39976278 .00012717 00000-0 23598-3 0 9992 2 25544 51.6365 168.8960 0002156 81.8387 12.2253 15.49318505508217 CXO 1 25867U 99040B 25124.47797547 .00000650 00000-0 00000-0 0 9995 2 25867 48.5990 131.7302 8493358 308.8609 359.7335 0.37807267 15771 ...Continue Reading

[TLELIST] Current TLEs

May 3rd 2025 PDT

HST 1 20580U 90037B 25123.02389578 .00010433 00000-0 40013-3 0 9991 2 20580 28.4692 350.9378 0002052 318.9685 41.0754 15.24803224726043 ISS (ZARYA) 1 25544U 98067A 25123.39976278 .00012717 00000-0 23598-3 0 9992 2 25544 51.6365 168.8960 0002156 81.8387 12.2253 15.49318505508217 CXO 1 25867U 99040B 25124.47797547 .00000650 00000-0 00000-0 0 9995 2 25867 48.5990 131.7302 8493358 308.8609 359.7335 0.37807267 15771 ...Continue Reading

[TLELIST] Current TLEs

May 2nd 2025 PDT

HST 1 20580U 90037B 25121.91122417 .00009564 00000-0 36641-3 0 9999 2 20580 28.4692 358.4728 0001966 305.9279 54.1133 15.24779315725872 ISS (ZARYA) 1 25544U 98067A 25122.16310700 .00011873 00000-0 22114-3 0 9993 2 25544 51.6358 175.0201 0002090 83.0482 309.0274 15.49285613508026 CXO 1 25867U 99040B 25124.47797547 .00000650 00000-0 00000-0 0 9995 2 25867 48.5990 131.7302 8493358 308.8609 359.7335 0.37807267 15771 ...Continue Reading

[TLELIST] Current TLEs

May 2nd 2025 PDT

HST 1 20580U 90037B 25121.91122417 .00009564 00000-0 36641-3 0 9999 2 20580 28.4692 358.4728 0001966 305.9279 54.1133 15.24779315725872 ISS (ZARYA) 1 25544U 98067A 25122.16310700 .00011873 00000-0 22114-3 0 9993 2 25544 51.6358 175.0201 0002090 83.0482 309.0274 15.49285613508026 CXO 1 25867U 99040B 25124.47797547 .00000650 00000-0 00000-0 0 9995 2 25867 48.5990 131.7302 8493358 308.8609 359.7335 0.37807267 15771 ...Continue Reading

[TLELIST] Current TLEs

May 2nd 2025 PDT

HST 1 20580U 90037B 25121.91122417 .00009564 00000-0 36641-3 0 9999 2 20580 28.4692 358.4728 0001966 305.9279 54.1133 15.24779315725872 ISS (ZARYA) 1 25544U 98067A 25122.16310700 .00011873 00000-0 22114-3 0 9993 2 25544 51.6358 175.0201 0002090 83.0482 309.0274 15.49285613508026 CXO 1 25867U 99040B 25124.47797547 .00000650 00000-0 00000-0 0 9995 2 25867 48.5990 131.7302 8493358 308.8609 359.7335 0.37807267 15771 ...Continue Reading

[TLELIST] Current TLEs

May 1st 2025 PDT

HST 1 20580U 90037B 25118.90038554 .00010015 00000-0 38476-3 0 9993 2 20580 28.4697 18.8626 0001952 270.3861 89.6509 15.24721539725154 ISS (ZARYA) 1 25544U 98067A 25119.19035294 .00013779 00000-0 25440-3 0 9996 2 25544 51.6352 189.7367 0002491 81.0639 279.0631 15.49383308507563 CXO 1 25867U 99040B 25121.83190868 .00000680 00000-0 00000-0 0 9998 2 25867 48.5387 131.8668 8498411 308.7907 359.5719 0.37807472 15763 ...Continue Reading

[TLELIST] Current TLEs

April 30th 2025 PDT

HST 1 20580U 90037B 25118.90038554 .00010015 00000-0 38476-3 0 9993 2 20580 28.4697 18.8626 0001952 270.3861 89.6509 15.24721539725154 ISS (ZARYA) 1 25544U 98067A 25119.19035294 .00013779 00000-0 25440-3 0 9996 2 25544 51.6352 189.7367 0002491 81.0639 279.0631 15.49383308507563 CXO 1 25867U 99040B 25121.83190868 .00000680 00000-0 00000-0 0 9998 2 25867 48.5387 131.8668 8498411 308.7907 359.5719 0.37807472 15763 ...Continue Reading

[TLELIST] Current TLEs

April 29th 2025 PDT

HST 1 20580U 90037B 25118.90038554 .00010015 00000-0 38476-3 0 9993 2 20580 28.4697 18.8626 0001952 270.3861 89.6509 15.24721539725154 ISS (ZARYA) 1 25544U 98067A 25119.19035294 .00013779 00000-0 25440-3 0 9996 2 25544 51.6352 189.7367 0002491 81.0639 279.0631 15.49383308507563 CXO 1 25867U 99040B 25121.83190868 .00000680 00000-0 00000-0 0 9998 2 25867 48.5387 131.8668 8498411 308.7907 359.5719 0.37807472 15763 ...Continue Reading

[TLELIST] Current TLEs

April 29th 2025 PDT

HST 1 20580U 90037B 25118.90038554 .00010015 00000-0 38476-3 0 9993 2 20580 28.4697 18.8626 0001952 270.3861 89.6509 15.24721539725154 ISS (ZARYA) 1 25544U 98067A 25119.19035294 .00013779 00000-0 25440-3 0 9996 2 25544 51.6352 189.7367 0002491 81.0639 279.0631 15.49383308507563 CXO 1 25867U 99040B 25121.83190868 .00000680 00000-0 00000-0 0 9998 2 25867 48.5387 131.8668 8498411 308.7907 359.5719 0.37807472 15763 ...Continue Reading
  • This mailing list is a public mailing list - anyone may join or leave, at any time.
  • This mailing list is announce-only.

International Space Station (ISS) / Hubble Space Telescope (HST) / Chandra X-Ray Observatory Orbital Data via EMAIL

Privacy Policy:

Private list